Location: Home
(42.5358°N, 72.7383°W)
Time: 18:33:45
(UTC-05:00)

Explorer 7 - Pass Details

Date: 29 November 2021
Orbit: 483 x 674 km, 50.3° (Epoch: 23 January)

Event Time Altitude Azimuth Distance (km) Brightness Sun altitude
Rises 13:04:46 0° 299° (WNW) 2,573 10.2 22.9°
Reaches altitude 10° 13:06:59 10° 296° (WNW) 1,675 9.3 22.8°
Maximum altitude 13:10:42 63° 216° (SW) 542 7.7 22.5°
Drops below altitude 10° 13:14:23 10° 134° (SE) 1,659 9.6 22.2°
Sets 13:16:34 0° 131° (SE) 2,544 10.4 22.1°
